Cloud_Cover
13 4 69 97 65 100 100 100 100 100 100 100 100 100 100 100 100 100 100 100 100 100 100 100 100 100 100 100 100 100 100 100 100 100 100 100 15 5 5 9 33 18 100
5 59 61 71 99 100 100 100 100 100 100 100 100 100 100 100 100 100 100 100 100 100 100 100 100 100 100 100 100 100 100 100 100 100 100 100 99 10 9 10 63 28 100
6 73 58 88 87 95 98 100 100 100 98 100 100 100 100 100 94 100 100 100 100 100 100 100 100 100 100 100 100 100 100 100 100 100 100 100 100 8 5 5 5 97 100
4 62 27 96 100 100 94 99 100 100 100 100 100 100 100 100 99 100 100 100 100 100 100 100 100 100 97 100 100 100 100 100 100 100 100 100 100 100 64 13 22 40 100
48 69 66 87 100 99 98 85 100 91 100 100 100 100 100 100 34 87 100 100 100 100 100 100 100 100 100 98 65 75 100 100 100 100 100 100 100 100 100 97 99 53 5
63 82 86 98 100 100 87 75 92 92 97 100 100 100 100 100 8 43 85 100 100 100 100 100 100 100 100 100 100 100 100 100 100 100 100 100 100 100 100 100 52 5 15
48 73 98 100 100 100 91 93 100 99 100 100 100 100 100 100 72 41 76 100 100 100 100 100 100 100 100 99 100 100 100 100 100 100 100 100 100 100 100 100 92 5 31
57 79 95 100 98 92 84 100 100 100 100 100 100 100 100 100 24 39 78 100 100 100 100 100 100 100 100 100 100 100 100 100 100 100 100 100 100 100 100 100 99 82 19
66 84 100 99 91 99 100 100 100 100 100 100 100 98 100 100 80 94 83 100 100 100 100 100 100 100 100 100 100 100 100 99 100 100 100 100 100 100 100 100 100 100 100
80 82 98 85 94 100 100 100 100 100 100 100 100 99 100 100 100 100 100 100 100 100 100 100 100 100 100 100 100 100 100 100 100 100 100 100 100 100 100 100 100 98 100
81 90 82 90 99 100 100 100 100 100 100 95 100 100 100 100 100 100 100 100 100 100 100 100 100 100 100 100 100 100 100 100 100 100 100 100 100 100 100 100 100 100 100
57 73 71 76 100 100 100 100 100 100 98 100 100 99 100 100 100 100 100 100 90 100 100 100 100 100 100 100 100 100 100 100 100 100 100 100 100 100 100 100 100 100 100
5 40 81 80 99 100 100 100 100 100 100 100 100 100 100 100 100 100 100 100 100 100 100 94 100 100 100 100 100 100 100 100 100 100 100 100 100 100 100 100 100 100 100
5 5 33 54 82 100 100 100 100 99 92 100 98 100 100 100 100 100 100 100 100 100 100 100 100 100 100 100 100 100 100 100 100 100 100 100 100 100 100 100 100 100 100
5 5 13 56 99 100 100 95 100 100 98 99 100 100 100 100 100 100 100 100 100 100 100 100 100 100 100 100 100 100 100 100 100 100 100 100 100 100 100 100 100 100 100
5 8 7 61 100 100 100 100 92 100 100 100 100 99 100 100 100 100 100 100 100 100 100 100 100 100 100 100 100 100 100 100 100 100 100 100 100 100 100 100 100 100 100
44 56 69 80 100 100 100 100 100 100 100 100 100 100 92 100 100 100 100 100 100 100 100 100 100 100 100 100 100 100 100 100 100 100 100 100 100 100 100 100 100 100 100
100 100 87 100 100 100 100 100 100 100 100 100 100 100 84 100 100 100 100 100 100 100 100 100 100 100 100 100 100 100 100 100 100 100 100 100 100 100 100 100 100 100 100
100 100 100 100 99 99 100 100 100 100 100 100 100 79 98 100 100 100 100 100 100 100 100 100 100 100 100 100 100 100 100 100 100 100 100 100 100 100 100 100 100 100 100
100 100 97 99 100 99 98 100 100 100 100 100 100 98 88 96 100 100 100 100 100 100 100 100 100 100 100 100 100 100 100 100 100 100 100 100 100 100 100 100 100 100 100
100 92 99 100 100 100 100 100 100 100 100 100 100 100 100 98 88 100 100 100 100 100 100 100 100 100 100 100 100 100 100 100 100 100 100 100 100 100 100 100 100 100 100
93 79 79 96 93 95 100 100 100 100 100 100 100 100 100 100 100 100 100 100 100 100 100 100 100 100 100 100 100 100 100 100 100 100 100 100 100 100 100 100 100 100 100
92 57 57 32 78 36 97 100 100 100 100 100 100 100 100 100 100 100 100 98 96 99 100 100 100 100 100 100 100 100 100 100 100 100 100 100 100 100 100 100 100 100 100
86 28 9 44 72 81 99 100 100 100 100 100 100 100 100 100 100 100 97 100 69 37 91 74 100 100 100 100 100 100 100 100 100 100 100 100 100 100 100 100 100 100 100
25 63 63 70 94 99 100 100 100 100 100 100 100 100 100 100 100 100 100 94 62 99 82 79 76 92 97 100 100 100 100 100 100 100 100 100 100 100 100 100 100 100 100
5 8 58 65 91 98 93 100 100 100 99 100 100 100 100 100 100 100 100 86 85 94 100 99 98 88 100 95 98 100 100 98 100 100 100 100 100 100 100 100 100 100 100